NO9B Weather Reports


time (UTC)temp
F
wind
direction
speed
knots
gust
knots
rain 1hr
in
rain 24hr
in
rain mn
in
humidity
%
barometer
mb
20260503232312 68 258 3.5 7.8 0.00 0.01 0.01 38 1005.1
20260503231810 68 256 1.7 5.2 0.00 0.01 0.01 40 1004.9
20260503231306 68 212 3.5 4.3 0.00 0.01 0.01 39 1005.1
20260503230802 68 240 4.3 4.3 0.00 0.01 0.01 39 1005.2
20260503230300 68 211 2.6 5.2 0.00 0.01 0.01 39 1005.2
20260503225757 68 242 2.6 11.3 0.00 0.01 0.01 39 1005.2
20260503225252 68 191 3.5 5.2 0.00 0.01 0.01 40 1005.1
20260503224749 68 208 3.5 5.2 0.00 0.01 0.01 40 1005.1
20260503224247 68 229 2.6 6.1 0.00 0.01 0.01 39 1005.2
20260503223744 68 285 5.2 6.1 0.00 0.01 0.01 39 1005.3
20260503223242 68 234 3.5 8.7 0.00 0.01 0.01 37 1005.4
20260503222738 68 221 2.6 6.1 0.00 0.01 0.01 38 1005.3
20260503222236 68 291 2.6 5.2 0.00 0.01 0.01 38 1005.4
20260503221734 68 259 1.7 7.0 0.00 0.01 0.01 38 1005.5
20260503221231 68 202 4.3 10.4 0.00 0.01 0.01 39 1005.4
20260503220728 68 278 4.3 11.3 0.00 0.01 0.01 39 1005.6
20260503220225 68 265 4.3 5.2 0.00 0.01 0.01 39 1005.5
20260503215721 68 275 5.2 8.7 0.00 0.01 0.01 38 1005.6
20260503215219 67 228 1.7 11.3 0.00 0.01 0.01 40 1005.6
20260503214717 68 219 6.1 12.2 0.00 0.01 0.01 38 1005.7
20260503214213 68 259 5.2 9.6 0.00 0.01 0.01 37 1005.6
20260503213711 68 263 2.6 9.6 0.00 0.01 0.01 39 1005.7
20260503213208 68 196 4.3 8.7 0.00 0.01 0.01 38 1005.8
20260503212705 68 282 6.1 7.0 0.00 0.01 0.01 38 1006.1
20260503212202 68 221 6.1 10.4 0.00 0.01 0.01 38 1005.8
20260503211700 68 208 5.2 6.1 0.00 0.01 0.01 37 1005.8
20260503211155 68 260 6.1 7.0 0.00 0.01 0.01 37 1005.8
20260503210652 68 206 5.2 5.2 0.00 0.01 0.01 38 1006.0
20260503210149 68 282 3.5 8.7 0.00 0.01 0.01 40 1006.0
20260503205644 67 252 3.5 6.1 0.00 0.01 0.01 40 1006.1
20260503205141 67 273 4.3 9.6 0.00 0.01 0.01 42 1006.2
20260503204637 67 241 6.1 8.7 0.00 0.01 0.01 41 1006.2
20260503204135 67 259 3.5 9.6 0.00 0.01 0.01 42 1006.3
20260503203632 67 224 1.7 7.8 0.00 0.01 0.01 43 1006.5
20260503203130 66 212 5.2 7.8 0.00 0.01 0.01 43 1006.8
20260503202627 65 284 4.3 9.6 0.00 0.01 0.01 45 1006.9
20260503202125 65 154 7.8 7.8 0.00 0.01 0.01 44 1007.1
20260503201623 65 228 3.5 7.8 0.00 0.01 0.01 45 1007.1
20260503201120 65 249 2.6 7.0 0.00 0.01 0.01 44 1007.4
20260503200616 66 214 7.8 9.6 0.00 0.01 0.01 43 1007.5
20260503200112 65 217 6.1 7.0 0.00 0.01 0.01 43 1007.5
20260503195609 65 209 3.5 12.2 0.00 0.01 0.01 43 1007.5
20260503195106 65 231 6.1 13.0 0.00 0.01 0.01 42 1007.5
20260503194603 65 257 7.8 13.0 0.00 0.01 0.01 41 1007.5
20260503194058 65 231 7.0 9.6 0.00 0.01 0.01 40 1007.6
20260503193555 66 190 11.3 13.9 0.00 0.01 0.01 38 1007.7
20260503193050 65 276 3.5 9.6 0.00 0.01 0.01 39 1007.6
20260503192547 65 231 8.7 10.4 0.00 0.01 0.01 39 1007.4
20260503192043 65 217 4.3 8.7 0.00 0.01 0.01 39 1007.6
20260503191539 66 279 7.0 13.0 0.00 0.01 0.01 39 1007.6
20260503191036 66 156 4.3 8.7 0.00 0.01 0.01 38 1007.6
20260503190533 66 252 3.5 10.4 0.00 0.01 0.01 37 1007.9
20260503190031 66 206 6.1 11.3 0.00 0.01 0.01 39 1007.8
20260503185527 66 241 5.2 9.6 0.00 0.01 0.01 37 1007.6
20260503185027 66 233 5.2 8.7 0.00 0.01 0.01 38 1007.8
20260503184523 66 202 3.5 7.0 0.00 0.01 0.01 41 1007.8
20260503184020 66 254 8.7 10.4 0.00 0.01 0.01 39 1008.0
20260503183516 65 257 4.3 6.1 0.00 0.01 0.01 41 1008.1
20260503183013 64 257 4.3 7.8 0.00 0.01 0.01 43 1008.1
20260503182512 64 248 6.1 8.7 0.00 0.01 0.01 43 1008.3
20260503182009 64 292 7.0 7.0 0.00 0.01 0.01 44 1008.3
20260503181506 63 186 4.3 7.0 0.00 0.01 0.01 43 1008.3
20260503181002 62 273 5.2 9.6 0.00 0.01 0.01 45 1008.5
20260503180500 62 241 3.5 7.0 0.00 0.01 0.01 48 1008.7
20260503175957 63 240 4.3 7.0 0.00 0.01 0.01 49 1008.8
20260503175455 62 249 1.7 6.1 0.00 0.01 0.01 47 1008.7
20260503174950 61 257 1.7 7.8 0.00 0.01 0.01 47 1008.9
20260503174449 61 212 2.6 7.0 0.00 0.01 0.01 51 1009.2
20260503173944 61 236 2.6 9.6 0.00 0.01 0.01 48 1009.1
20260503173440 60 289 3.5 7.0 0.00 0.01 0.01 51 1009.1
20260503172937 60 210 6.1 9.6 0.00 0.01 0.01 50 1009.3
20260503172434 60 149 2.6 6.1 0.00 0.01 0.01 51 1009.2
20260503171931 60 245 2.6 11.3 0.00 0.01 0.01 50 1009.3
20260503171427 59 220 4.3 7.0 0.00 0.01 0.01 51 1009.5
20260503170925 59 261 2.6 7.0 0.00 0.01 0.01 53 1009.6
20260503170421 58 267 1.7 4.3 0.00 0.01 0.01 56 1009.7
20260503150813 58 243 2.6 7.0 0.00 0.00 0.00 50 1011.1
20260503150309 57 254 3.5 8.7 0.00 0.00 0.00 51 1011.4
20260503140234 55 196 3.5 8.7 0.00 0.00 0.00 51 1011.6
20260503131203 52 287 3.5 6.1 0.00 0.00 0.00 52 1012.0
20260503130701 51 232 3.5 9.6 0.00 0.00 0.00 52 1012.0
20260503130158 51 216 6.1 9.6 0.00 0.00 0.00 53 1011.9
20260503120124 50 258 3.5 7.8 0.00 0.00 0.00 50 1012.1
20260503110551 49 242 1.7 6.1 0.00 0.00 0.00 50 1012.1
20260503090438 48 255 3.5 6.1 0.00 0.00 0.00 47 1012.5
20260503081404 49 252 3.5 6.1 0.00 0.00 0.00 47 1013.2
20260503080901 49 271 3.5 5.2 0.00 0.00 0.00 46 1013.2
20260503080358 49 219 3.5 4.3 0.00 0.00 0.00 46 1013.0
20260503072835 49 248 2.6 7.0 0.00 0.00 0.00 47 1013.4
20260503072332 49 249 2.6 3.5 0.00 0.00 0.00 47 1013.3
20260503071828 48 255 3.5 5.2 0.00 0.00 0.00 46 1013.5
20260503071325 49 260 3.5 5.2 0.00 0.00 0.00 46 1013.4
20260503070821 48 215 2.6 5.2 0.00 0.00 0.00 47 1013.4
20260503070320 48 251 1.7 6.1 0.00 0.00 0.00 48 1013.3
20260503060250 45 274 1.7 3.5 0.00 0.00 0.00 55 1014.1
20260503054737 46 216 2.6 3.5 0.00 0.00 0.00 55 1014.1
20260503054234 46 236 1.7 3.5 0.00 0.00 0.00 54 1014.3
20260503053732 46 253 1.7 2.6 0.00 0.00 0.00 53 1014.3
20260503053231 46 251 1.7 4.3 0.00 0.00 0.00 53 1014.3
20260503052726 46 232 3.5 4.3 0.00 0.00 0.00 54 1014.4
20260503052223 45 273 1.7 3.5 0.00 0.00 0.00 56 1014.3
20260503051718 44 267 3.5 3.5 0.00 0.00 0.00 58 1014.5
20260503051217 44 232 2.6 3.5 0.00 0.00 0.00 60 1014.3
20260503050713 44 237 2.6 3.5 0.00 0.00 0.00 60 1014.4
20260503050209 43 272 0.9 2.6 0.00 0.00 0.00 61 1014.6
20260503045707 43 223 2.6 2.6 0.00 0.00 0.00 62 1014.6
20260503045204 43 210 1.7 2.6 0.00 0.00 0.00 64 1014.4
20260503044700 42 235 1.7 2.6 0.00 0.00 0.00 65 1014.6
20260503044158 42 225 2.6 2.6 0.00 0.00 0.00 66 1014.5
20260503043654 42 244 1.7 2.6 0.00 0.00 0.00 68 1014.6
20260503043152 41 224 1.7 2.6 0.00 0.00 0.00 69 1014.6
20260503042648 41 226 1.7 2.6 0.00 0.00 0.00 70 1014.6
20260503042144 41 232 1.7 2.6 0.00 0.00 0.00 73 1014.7
20260503041641 41 247 0.9 2.6 0.00 0.00 0.00 74 1014.7
20260503041139 40 240 1.7 2.6 0.00 0.00 0.00 75 1014.8
20260503040636 40 221 0.9 1.7 0.00 0.00 0.00 77 1014.7
20260503040133 40 222 1.7 1.7 0.00 0.00 0.00 77 1015.0
20260503035630 41 222 1.7 1.7 0.00 0.00 0.00 76 1014.8
20260503035128 41 215 1.7 1.7 0.00 0.00 0.00 75 1014.9
20260503034625 41 225 1.7 1.7 0.00 0.00 0.00 75 1014.8
20260503034122 41 221 1.7 2.6 0.00 0.00 0.00 74 1014.8
20260503033619 41 220 1.7 1.7 0.00 0.00 0.00 74 1015.0
20260503033117 41 276 0.0 2.6 0.00 0.00 0.00 74 1015.0
20260503032615 41 221 0.9 2.6 0.00 0.00 0.00 73 1015.1
20260503032113 41 227 1.7 1.7 0.00 0.00 0.00 73 1015.0
20260503031610 41 222 2.6 2.6 0.00 0.00 0.00 72 1015.0
20260503031108 42 229 1.7 2.6 0.00 0.00 0.00 72 1015.1
20260503030603 42 237 1.7 1.7 0.00 0.00 0.00 72 1015.2
20260503030100 42 228 1.7 2.6 0.00 0.00 0.00 71 1015.2
20260503025557 42 248 1.7 1.7 0.00 0.00 0.00 73 1015.4
20260503025055 42 262 0.9 2.6 0.00 0.00 0.00 71 1015.5
20260503024550 42 263 0.9 1.7 0.00 0.00 0.00 72 1015.6
20260503024048 42 233 1.7 1.7 0.00 0.00 0.00 72 1015.3
20260503023544 42 237 0.9 1.7 0.00 0.00 0.00 70 1015.5
20260503023042 42 249 0.9 2.6 0.00 0.00 0.00 71 1015.4
20260503022538 42 276 0.9 1.7 0.00 0.00 0.00 71 1015.4
20260503022033 42 240 1.7 1.7 0.00 0.00 0.00 70 1015.3
20260503021530 43 226 0.9 1.7 0.00 0.00 0.00 70 1015.5
20260503021027 43 269 1.7 1.7 0.00 0.00 0.00 68 1015.5
20260503020524 43 256 1.7 1.7 0.00 0.00 0.00 68 1015.4
20260503020021 44 261 0.9 1.7 0.00 0.00 0.00 66 1015.4
20260503015518 44 279 0.0 1.7 0.00 0.00 0.00 66 1015.3
20260503015015 44 247 0.0 1.7 0.00 0.00 0.00 65 1015.2
20260503014511 44 254 0.9 1.7 0.00 0.00 0.00 64 1015.3
20260503014009 45 247 0.9 1.7 0.00 0.00 0.00 64 1015.2
20260503013506 45 305 0.9 1.7 0.00 0.00 0.00 62 1015.4
20260503013003 45 280 0.9 1.7 0.00 0.00 0.00 62 1015.3
20260503012501 46 274 0.9 2.6 0.00 0.00 0.00 61 1015.1
20260503011956 46 259 0.9 2.6 0.00 0.00 0.00 60 1015.0
20260503011454 46 282 0.9 1.7 0.00 0.00 0.00 59 1015.0
20260503010950 47 244 1.7 1.7 0.00 0.00 0.00 58 1015.0
20260503010447 47 338 1.7 1.7 0.00 0.00 0.00 57 1015.1
20260503005944 47 221 2.6 3.5 0.00 0.00 0.00 56 1015.2
20260503005442 48 271 0.0 1.7 0.00 0.00 0.00 55 1015.2
20260503004938 48 289 0.9 1.7 0.00 0.00 0.00 54 1015.1
20260503004435 48 257 1.7 2.6 0.00 0.00 0.00 54 1015.2
20260503003933 49 246 1.7 1.7 0.00 0.00 0.00 53 1015.3
20260503003429 49 240 1.7 2.6 0.00 0.00 0.00 52 1015.3
20260503002927 49 255 0.0 2.6 0.00 0.00 0.00 52 1015.2
20260503002424 50 252 0.9 2.6 0.00 0.00 0.00 51 1015.3
20260503001920 50 304 1.7 1.7 0.00 0.00 0.00 50 1015.4
20260503001416 50 312 1.7 2.6 0.00 0.00 0.00 50 1015.4
20260503000915 50 248 1.7 2.6 0.00 0.00 0.00 50 1015.3
20260503000411 51 319 1.7 3.5 0.00 0.00 0.00 50 1015.5
20260502235908 51 196 2.6 3.5 0.00 0.00 0.00 49 1015.4
20260502235405 51 210 1.7 2.6 0.00 0.00 0.00 48 1015.4
20260502234903 51 274 1.7 2.6 0.00 0.00 0.00 48 1015.5
20260502234359 51 328 2.6 3.5 0.00 0.00 0.00 48 1015.4
20260502233856 51 260 1.7 1.7 0.00 0.00 0.00 47 1015.5
20260502233352 51 345 1.7 2.6 0.00 0.00 0.00 48 1015.6
20260502232849 51 243 1.7 3.5 0.00 0.00 0.00 47 1015.7